Погода в Джулате

Россия / Кабардино-Балкарская Республика     43°36′55″N   44°05′36″E
темп.,
°C
ветер,
м/с
пор.,
м/с
влажн.,
%
обл.,
%
осадки,
мм/ч
давл.,
гПа
погр.,
м
9 марта, вт
вт900:00+1ю226866 0.0 101934
03:000юз236280 0.0 101945
06:00−1ююз235833 0.0 101933
09:00+3ю234517 0.0 1018460
12:00+7вюв22350 0.0 10161197
15:00+8в11300 0.0 10151511
18:00+6ссв233733 0.0 101856
21:00+4с476267 0.0 1021614
10 марта, ср
ср1000:00+3юз117895 0.1 102292
03:00+1юз347397 0.2 1023134
06:000ссв1295100 0.4 1024138
09:00+1св3487100 1.7 1024502
12:00+3ссв4456100 0.1 10221038
15:00+4св3352100 0.1 10211178
18:00+3всв2462100 0.0 1021692
21:00+2всв3572100 0.2 1022751
11 марта, чт
чт1100:00+1в4768100 0.4 1020783
03:000всв3568100 0.5 1019704
06:00−1в4682100 0.1 1018498
09:00−2всв5790100 0.9 1017534
12:00−1всв7985100 0.9 1016756
15:00−2всв81083100 1.6 1016891
18:00−4всв6990100 0.8 1016737
21:00−6всв5892100 1.9 1018584
12 марта, пт
пт1200:00−6всв5892100 1.1 1017600
03:00−6всв4794100 2.4 1018508
06:00−6всв3694100 1.3 1021451
09:00−6всв5694100 3.1 1023489
12:00−5всв5793100 1.3 1023616
15:00−5всв6893100 2.4 1024690
18:00−6всв5993100 0.8 1027559
21:00−7всв3594100 1.3 1030239
13 марта, сб
сб1300:00−10всв229592 0.1 103144
03:00−12сз119592 0.1 103122
06:00−13з229594 0.0 103227
09:00−10с118971 0.0 1031184
12:00−5св228378 0.0 1029505
15:00−3св228389 0.1 1028506
18:00−5св349297 0.0 1028127
21:00−9ююз119374 0.1 102821